Weather History for Rennes, France

Change the Weather History Date:

Sunday, November 3, 2013

  Actual Average Record
Temperature  
Mean Temperature 50 °F -  
Max Temperature 59 °F 52 °F 64 °F (2005)
Min Temperature 44 °F 40 °F 30 °F (1997)
Degree Days  
Heating Degree Days 14    
Moisture  
Dew Point 44 °F    
Average Humidity 78    
Maximum Humidity 94    
Minimum Humidity 51    
Precipitation  
Precipitation 0.01 in - - ()
Sea Level Pressure  
Sea Level Pressure 29.76 in    
Wind  
Wind Speed 11 mph ()    
Max Wind Speed 22 mph    
Max Gust Speed 33 mph    
Visibility 6.5 miles    
Events Rain    
Averages and records for this station are not official NWS values.
T = Trace of Precipitation, MM = Missing Value Source: Averaged Metar Reports

Daily Weather History Graph

Daily Weather History Graph

Search for Another Location

Airport:

Trip Planner

Search our weather history database for the weather conditions in past years. The results will help you decide how hot, cold, wet, or windy it might be!

Date:

Astronomy

Nov. 03, 2013 Rise Set
Actual Time 7:55 AM CET 5:45 PM CET
Civil Twilight 7:22 AM CET 6:17 PM CET
Nautical Twilight 6:45 AM CET 6:54 PM CET
Astronomical Twilight 6:09 AM CET 7:30 PM CET
Moon 7:42 AM CET (11/3) 5:47 PM CET (11/3)
Length of Visible Light 10h 55m
Length of Day
9h 50m
Waning Crescent, 0% of the Moon is Illuminated
Nov 3
Waning Crescent
Nov 3
New
Nov 10
First Quarter
Nov 17
Full
Nov 25
Last Quarter

Hourly Weather History & Observations

Time (CET) Temp. Windchill Dew Point Humidity Pressure Visibility Wind Dir Wind Speed Gust Speed Precip Events Conditions
12:00 AM 50.0 °F - 42.8 °F 76% 29.77 in 6.2 mi WSW 11.5 mph - N/A   Unknown
12:30 AM 50.0 °F - 41.0 °F 71% 29.80 in 6.2 mi West 9.2 mph - N/A   Mostly Cloudy
1:00 AM 48 °F - 42 °F 71% 29.79 in 15 mi WSW 12.7 mph - - Rain Light Rain
1:00 AM 48.2 °F - 42.8 °F 82% 29.77 in 6.2 mi WSW 12.7 mph - N/A   Mostly Cloudy
1:30 AM 48.2 °F - 41.0 °F 76% 29.80 in 6.2 mi WSW 8.1 mph - N/A   Unknown
2:00 AM 48.2 °F - 41.0 °F 76% 29.77 in 6.2 mi SW 9.2 mph - N/A   Unknown
2:30 AM 48.2 °F - 41.0 °F 76% 29.77 in 6.2 mi WSW 10.4 mph - N/A   Unknown
3:00 AM 46.4 °F 41.5 °F 41.0 °F 81% 29.80 in 6.2 mi SW 10.4 mph - N/A   Unknown
3:30 AM 46.4 °F 42.4 °F 41.0 °F 81% 29.80 in 6.2 mi WSW 8.1 mph - N/A   Mostly Cloudy
4:00 AM 46.4 °F 41.5 °F 41.0 °F 81% 29.80 in 6.2 mi SW 10.4 mph - N/A   Unknown
4:30 AM 46.4 °F 41.9 °F 41.0 °F 81% 29.80 in 6.2 mi WSW 9.2 mph - N/A   Unknown
5:00 AM 46.4 °F 41.1 °F 39.2 °F 76% 29.80 in 6.2 mi WSW 11.5 mph - N/A   Unknown
5:30 AM 46.4 °F 41.1 °F 39.2 °F 76% 29.83 in 6.2 mi WSW 11.5 mph - N/A   Unknown
6:00 AM 46.4 °F 41.1 °F 39.2 °F 76% 29.83 in 6.2 mi WSW 11.5 mph - N/A   Unknown
6:30 AM 46.4 °F 41.5 °F 39.2 °F 76% 29.83 in 6.2 mi WSW 10.4 mph - N/A   Unknown
7:00 AM 46 °F - 40 °F 72% 29.86 in 37 mi WSW 13.8 mph - -   Clear
7:00 AM 46.4 °F 40.4 °F 39.2 °F 76% 29.86 in 6.2 mi WSW 13.8 mph - N/A   Unknown
7:30 AM 46.4 °F 40.4 °F 39.2 °F 76% 29.86 in 6.2 mi WSW 13.8 mph - N/A   Unknown
8:00 AM 44.6 °F 38.8 °F 39.2 °F 81% 29.86 in 6.2 mi WSW 11.5 mph - N/A   Unknown
8:30 AM 46.4 °F 41.9 °F 41.0 °F 81% 29.89 in 6.2 mi WSW 9.2 mph - N/A   Unknown
9:00 AM 46.4 °F 41.9 °F 41.0 °F 81% 29.89 in 6.2 mi WSW 9.2 mph - N/A   Unknown
9:30 AM 48.2 °F - 41.0 °F 76% 29.92 in 6.2 mi WSW 9.2 mph - N/A   Unknown
10:00 AM 50.0 °F - 42.8 °F 76% 29.92 in 6.2 mi WSW 5.8 mph - N/A   Unknown
10:30 AM 51.8 °F - 42.8 °F 71% 29.92 in 6.2 mi WSW 12.7 mph - N/A   Unknown
11:00 AM 53.6 °F - 42.8 °F 67% 29.89 in 6.2 mi WSW 12.7 mph - N/A   Unknown
11:30 AM 53.6 °F - 42.8 °F 67% 29.89 in 6.2 mi WSW 12.7 mph - N/A   Unknown
12:00 PM 55.4 °F - 41.0 °F 58% 29.89 in 6.2 mi WSW 12.7 mph - N/A   Unknown
12:30 PM 55.4 °F - 42.8 °F 63% 29.89 in 6.2 mi WSW 12.7 mph - N/A   Scattered Clouds
1:00 PM 56 °F - 43 °F 51% 29.91 in 18 mi WSW 12.7 mph - -   Clear
1:00 PM 55.4 °F - 42.8 °F 63% 29.89 in 6.2 mi WSW 12.7 mph - N/A   Mostly Cloudy
1:30 PM 55.4 °F - 42.8 °F 63% 29.86 in 6.2 mi WSW 13.8 mph - N/A   Mostly Cloudy
2:00 PM 55.4 °F - 42.8 °F 63% 29.86 in 6.2 mi WSW 15.0 mph - N/A   Mostly Cloudy
2:30 PM 55.4 °F - 42.8 °F 63% 29.83 in 6.2 mi SSW 13.8 mph - N/A   Mostly Cloudy
3:00 PM 53.6 °F - 42.8 °F 67% 29.83 in 6.2 mi SW 11.5 mph - N/A   Unknown
3:30 PM 53.6 °F - 44.6 °F 72% 29.80 in 6.2 mi SSW 10.4 mph - N/A   Overcast
4:00 PM 53.6 °F - 44.6 °F 72% 29.80 in 6.2 mi SSW 11.5 mph - N/A   Unknown
4:30 PM 53.6 °F - 44.6 °F 72% 29.77 in 6.2 mi SSW 11.5 mph - N/A   Unknown
5:00 PM 53.6 °F - 44.6 °F 72% 29.77 in 6.2 mi SSW 11.5 mph - N/A Rain Light Rain
5:30 PM 51.8 °F - 46.4 °F 82% 29.74 in 6.2 mi South 11.5 mph - N/A Rain Light Rain
6:00 PM 51.8 °F - 48.2 °F 88% 29.71 in 6.2 mi SSW 13.8 mph - N/A Rain Light Rain
6:30 PM 51.8 °F - 48.2 °F 88% 29.71 in 6.2 mi South 12.7 mph - N/A   Mostly Cloudy
7:00 PM 51 °F - 49 °F 91% 29.69 in 22 mi South 11.5 mph - - Rain Light Rain
7:00 PM 51.8 °F - 50.0 °F 94% 29.68 in 6.2 mi South 12.7 mph - N/A   Overcast
7:30 PM 51.8 °F - 50.0 °F 94% 29.62 in 6.2 mi South 16.1 mph - N/A Rain Light Rain
8:00 PM 51.8 °F - 50.0 °F 94% 29.59 in 6.2 mi South 18.4 mph - N/A Rain Light Rain
8:30 PM 51.8 °F - 50.0 °F 94% 29.56 in - South 19.6 mph - N/A Rain Light Rain
9:00 PM 53.6 °F - 51.8 °F 94% 29.50 in - South 21.9 mph - N/A Rain Rain
9:30 PM 53.6 °F - 51.8 °F 94% 29.47 in 3.1 mi South 19.6 mph - N/A Rain Rain
10:00 PM 55.4 °F - 53.6 °F 94% 29.44 in 3.7 mi SSW 20.7 mph 33.4 mph N/A Rain Light Rain
10:30 PM 57.2 °F - 55.4 °F 94% 29.44 in - SW 19.6 mph - N/A Rain Light Rain
11:00 PM 57.2 °F - 55.4 °F 94% 29.42 in 3.1 mi SW 19.6 mph 32.2 mph N/A Rain Light Rain
11:30 PM 59.0 °F - 55.4 °F 88% 29.39 in 6.2 mi SW 18.4 mph 29.9 mph N/A   Overcast